Simultaneous Nadir Overpasses (SNOs) Predictions

Prediction of SNOs between GOES-15 and METOP-A Satellite Orbit:

Table of predicted SNOs for the next 14.0 days since TLE Epoch: 11/17/2017
Index Date Time (GOES-15) GOES-15 Lat,Lon METOP-A Lat,Lon Distance(km) Time Diff (sec)
1 11/19/2017 06:36:50 0.21,-135.01 -0.27,-137.18 246.76 80
2 11/20/2017 06:13:30 0.21,-135.04 0.86,-132.19 325.61 80
3 11/21/2017 18:32:19 -0.20,-135.06 0.16,-136.75 192.12 80
4 11/22/2017 18:14:18 -0.20,-135.09 -0.97,-131.75 380.69 80
5 11/24/2017 06:33:17 0.19,-135.17 -0.07,-136.35 134.14 80
6 11/25/2017 06:09:56 0.19,-135.19 1.06,-131.35 437.52 80
7 11/26/2017 18:28:45 -0.18,-135.19 -0.05,-135.91 81.94 80
8 11/27/2017 18:10:44 -0.18,-135.21 -1.12,-130.91 490.19 80
9 11/29/2017 06:29:43 0.17,-135.29 0.15,-135.51 25.10 80
10 12/01/2017 18:27:51 -0.17,-135.28 -0.21,-135.07 24.54 80




NCC Satellite Simultaneous Nadir Overpasses (SNOs) Prediction Service
